TimeIST,TemperatureF,Dew PointF,Humidity,Sea Level PressureIn,VisibilityMPH,Wind Direction,Wind SpeedMPH,Gust SpeedMPH,PrecipitationIn,Events,Conditions,WindDirDegrees,DateUTC
12:30 AM,-9999,-9999,N/A,30.04,1.2,Calm,Calm,-,N/A,,Mist,0,2013-03-04 19:00:00
1:00 AM,-9999,-9999,N/A,30.04,1.2,Calm,Calm,-,N/A,,Mist,0,2013-03-04 19:30:00
1:30 AM,-9999,-9999,N/A,30.04,1.2,Calm,Calm,-,N/A,,Mist,0,2013-03-04 20:00:00
2:00 AM,-9999,-9999,N/A,30.04,1.2,Calm,Calm,-,N/A,,Mist,0,2013-03-04 20:30:00
2:30 AM,58,58,100,30.02,1,Calm,Calm,,,,Haze,,2013-03-04 21:00:00
2:30 AM,59.0,59.0,100,30.01,1.2,Calm,Calm,-,N/A,,Mist,0,2013-03-04 21:00:00
3:00 AM,55.4,53.6,94,30.04,1.0,Calm,Calm,-,N/A,,Mist,0,2013-03-04 21:30:00
3:30 AM,55.4,53.6,94,30.04,1.2,Calm,Calm,-,N/A,,Mist,0,2013-03-04 22:00:00
4:00 AM,55.4,53.6,94,30.01,1.0,Calm,Calm,-,N/A,,Mist,0,2013-03-04 22:30:00
4:30 AM,55.4,53.6,94,30.01,1.0,Calm,Calm,-,N/A,,Mist,0,2013-03-04 23:00:00
5:00 AM,53.6,53.6,100,30.01,1.0,Calm,Calm,-,N/A,,Mist,0,2013-03-04 23:30:00
5:30 AM,53,53,98,30.03,0,Calm,Calm,,,Fog,Partial Fog,,2013-03-05 00:00:00
7:30 AM,50.0,50.0,100,30.06,0.0,Calm,Calm,-,N/A,Fog,Fog,0,2013-03-05 02:00:00
8:00 AM,51.8,51.8,100,30.06,0.0,Calm,Calm,-,N/A,Fog,Fog,0,2013-03-05 02:30:00
8:30 AM,55,55,98,30.09,1,Calm,Calm,,,,Mist,,2013-03-05 03:00:00
8:30 AM,55.4,55.4,100,30.09,0.7,Calm,Calm,-,N/A,,Partly Cloudy,0,2013-03-05 03:00:00
9:00 AM,57.2,57.2,100,30.09,0.0,Calm,Calm,-,N/A,Fog,Fog,0,2013-03-05 03:30:00
9:30 AM,62.6,62.6,100,30.09,0.6,Calm,Calm,-,N/A,,Mist,0,2013-03-05 04:00:00
10:00 AM,68.0,68.0,100,30.09,1.6,Calm,Calm,-,N/A,,Mist,0,2013-03-05 04:30:00
10:30 AM,71.6,64.4,78,30.12,2.2,NW,4.6,-,N/A,,Mist,310,2013-03-05 05:00:00
11:00 AM,73.4,64.4,73,30.09,2.5,NW,4.6,-,N/A,,Mist,310,2013-03-05 05:30:00
11:30 AM,74,63,61,30.09,2,NW,4.6,,,,Haze,320,2013-03-05 06:00:00
11:30 AM,73.4,62.6,69,30.09,3.1,NW,4.6,-,N/A,,Haze,310,2013-03-05 06:00:00
12:00 PM,75.2,62.6,65,30.09,3.7,NW,4.6,-,N/A,,Unknown,310,2013-03-05 06:30:00
12:30 PM,75.2,62.6,65,30.09,3.7,NW,6.9,-,N/A,,Unknown,320,2013-03-05 07:00:00
1:00 PM,77.0,60.8,57,30.09,3.7,WNW,5.8,-,N/A,,Unknown,300,2013-03-05 07:30:00
1:30 PM,77.0,60.8,57,30.06,3.7,Variable,5.8,-,N/A,,Unknown,0,2013-03-05 08:00:00
2:00 PM,78.8,60.8,54,30.06,3.7,Variable,4.6,-,N/A,,Unknown,0,2013-03-05 08:30:00
2:30 PM,79,60,43,30.01,2,NNE,5.8,,,,,20,2013-03-05 09:00:00
2:30 PM,78.8,60.8,54,30.04,3.7,Variable,5.8,-,N/A,,Unknown,0,2013-03-05 09:00:00
3:00 PM,80.6,60.8,51,30.04,3.7,Variable,4.6,-,N/A,,Unknown,0,2013-03-05 09:30:00
3:30 PM,78.8,60.8,54,30.04,3.7,West,4.6,-,N/A,,Unknown,260,2013-03-05 10:00:00
4:00 PM,80.6,60.8,51,30.04,3.7,Variable,2.3,-,N/A,,Unknown,0,2013-03-05 10:30:00
4:30 PM,78.8,60.8,54,30.04,3.7,WNW,4.6,-,N/A,,Unknown,300,2013-03-05 11:00:00
5:00 PM,78.8,60.8,54,30.01,3.7,WNW,3.5,-,N/A,,Unknown,300,2013-03-05 11:30:00
5:30 PM,78.8,60.8,54,30.01,3.7,Variable,1.2,-,N/A,,Unknown,0,2013-03-05 12:00:00
6:00 PM,77.0,60.8,57,30.01,3.7,Calm,Calm,-,N/A,,Unknown,0,2013-03-05 12:30:00
6:30 PM,73.4,60.8,65,30.01,3.7,Calm,Calm,-,N/A,,Unknown,0,2013-03-05 13:00:00
7:30 PM,69.8,62.6,78,30.04,3.1,Calm,Calm,-,N/A,,Haze,0,2013-03-05 14:00:00
8:00 PM,68.0,62.6,83,30.04,3.1,Calm,Calm,-,N/A,,Haze,0,2013-03-05 14:30:00
8:30 PM,66.2,60.8,83,30.04,2.5,Calm,Calm,-,N/A,,Mist,0,2013-03-05 15:00:00
9:00 PM,66.2,60.8,83,30.04,2.5,Calm,Calm,-,N/A,,Mist,0,2013-03-05 15:30:00
9:30 PM,64.4,60.8,88,30.04,2.2,Calm,Calm,-,N/A,,Mist,0,2013-03-05 16:00:00
10:30 PM,60.8,59.0,94,30.04,1.2,Calm,Calm,-,N/A,,Mist,0,2013-03-05 17:00:00
11:00 PM,60.8,59.0,94,30.04,1.2,Calm,Calm,-,N/A,,Mist,0,2013-03-05 17:30:00
11:30 PM,59,59,100,30.05,1,Calm,Calm,,,,Mist,,2013-03-05 18:00:00